KLM148 DAOI-LTAR

Flight info

Callsign KLM148
Flight time N/A
Altitude 31000
Route DAHRA UZ444 BNA UA411 MORJA UM978 KEMIR UA411 TUC UM725 SIRVI UB979 SUSIP/N0347F300 DCT LEBNU DCT CDC DCT LATAN/N0361F310 UL869 KRK UM600 TSL UM603 PEREN UN644 BKZ UL615 ERKAL UA4 OLPOT
Aircraft A400/H-SDE2E3FGHIJ4J5M1RWXY/LB1D1

Departure

Time 2026-04-19 11:35
Airport Chlef Aboubakr Belkaid International Airport (DAOI)

Arrival

Time N/A
Airport Sivas Nuri Demirağ Airport (LTAR)
Time Latitude Longitude Altitude Speed Heading
2026-04-19 11:26 36.21615 1.32575 515 ft 0 kts 288°
2026-04-19 11:33 36.21615 1.32574 515 ft 1 kts 288°
2026-04-19 11:33 36.21597 1.32506 515 ft 17 kts 249°
2026-04-19 11:34 36.21563 1.32461 515 ft 6 kts 171°
2026-04-19 11:34 36.21489 1.32487 515 ft 12 kts 161°
2026-04-19 11:34 36.21425 1.32543 515 ft 11 kts 123°
2026-04-19 11:34 36.21424 1.32631 516 ft 11 kts 78°
2026-04-19 11:35 36.21475 1.32910 515 ft 75 kts 76°
2026-04-19 11:35 36.21656 1.33884 518 ft 157 kts 77°
2026-04-19 11:35 36.21927 1.35333 940 ft 182 kts 76°
2026-04-19 11:35 36.22235 1.36921 1537 ft 196 kts 76°
2026-04-19 11:36 36.22574 1.38607 2226 ft 208 kts 75°
2026-04-19 11:36 36.22943 1.40364 2965 ft 218 kts 75°
2026-04-19 11:36 36.23351 1.42205 3748 ft 226 kts 74°
2026-04-19 11:36 36.23817 1.44151 4292 ft 247 kts 72°
2026-04-19 11:37 36.24357 1.46261 4915 ft 261 kts 72°
2026-04-19 11:37 36.24934 1.48458 5607 ft 275 kts 71°
2026-04-19 11:37 36.25541 1.50757 6300 ft 284 kts 72°
2026-04-19 11:37 36.26164 1.53134 6960 ft 297 kts 71°
2026-04-19 11:38 36.26802 1.55587 7571 ft 309 kts 72°
2026-04-19 11:38 36.27481 1.58212 8038 ft 328 kts 72°
2026-04-19 11:38 36.28201 1.61012 8336 ft 359 kts 71°
2026-04-19 11:38 36.29005 1.64136 8394 ft 400 kts 71°
2026-04-19 11:39 36.29889 1.67574 8492 ft 436 kts 70°
2026-04-19 11:39 36.30516 1.70019 8525 ft 461 kts 68°
2026-04-19 11:39 36.31536 1.73989 8620 ft 499 kts 69°
2026-04-19 11:39 36.32605 1.78171 9021 ft 523 kts 68°
2026-04-19 11:40 36.34123 1.84112 9389 ft 561 kts 67°
2026-04-19 11:40 36.35298 1.88753 9832 ft 569 kts 69°
2026-04-19 11:40 36.36104 1.91951 9926 ft 581 kts 62°
2026-04-19 11:40 36.37332 1.96820 10222 ft 599 kts 69°
2026-04-19 11:41 36.38574 2.01753 10366 ft 611 kts 70°
2026-04-19 11:41 36.39845 2.06840 10460 ft 617 kts 70°
2026-04-19 11:41 36.41119 2.11963 11041 ft 619 kts 70°
2026-04-19 11:41 36.42390 2.17062 12126 ft 613 kts 70°
2026-04-19 11:42 36.43638 2.22062 13076 ft 613 kts 64°
2026-04-19 11:42 36.44929 2.27192 13925 ft 625 kts 63°
2026-04-19 11:42 36.46229 2.32366 14914 ft 623 kts 66°
2026-04-19 11:42 36.47498 2.37457 15724 ft 625 kts 71°
2026-04-19 11:43 36.48782 2.42635 16418 ft 628 kts 70°
2026-04-19 11:43 36.50070 2.47851 17096 ft 631 kts 70°
2026-04-19 11:43 36.51362 2.53088 17742 ft 634 kts 70°
2026-04-19 11:43 36.52661 2.58364 18369 ft 637 kts 70°
2026-04-19 11:44 36.53943 2.63578 19003 ft 640 kts 73°
2026-04-19 11:44 36.55251 2.68910 19566 ft 644 kts 76°
2026-04-19 11:44 36.56563 2.74274 20181 ft 647 kts 76°
2026-04-19 11:44 36.57878 2.79657 20778 ft 650 kts 76°
2026-04-19 11:45 36.59178 2.84987 21360 ft 654 kts 76°
2026-04-19 11:45 36.60499 2.90418 21925 ft 657 kts 76°
2026-04-19 11:45 36.61830 2.95894 22472 ft 660 kts 76°
2026-04-19 11:45 36.63161 3.01385 23016 ft 663 kts 76°
2026-04-19 11:46 36.64493 3.06893 23534 ft 666 kts 76°
2026-04-19 11:46 36.65836 3.12457 24032 ft 669 kts 76°
2026-04-19 11:46 36.67160 3.17956 24501 ft 672 kts 76°
2026-04-19 11:46 36.68505 3.23556 24942 ft 674 kts 76°
2026-04-19 11:47 36.69852 3.29174 25365 ft 677 kts 76°
2026-04-19 11:47 36.71198 3.34807 25770 ft 679 kts 76°
2026-04-19 11:47 36.72551 3.40477 26155 ft 682 kts 76°
2026-04-19 11:47 36.73883 3.46071 26550 ft 683 kts 76°
2026-04-19 11:48 36.75243 3.51801 26910 ft 686 kts 76°
2026-04-19 11:48 36.76598 3.57522 27252 ft 687 kts 76°
2026-04-19 11:48 36.77954 3.63259 27539 ft 689 kts 76°
2026-04-19 11:48 36.79309 3.69009 27816 ft 692 kts 76°
2026-04-19 11:49 36.80649 3.74708 28111 ft 694 kts 76°
2026-04-19 11:49 36.82007 3.80496 28441 ft 694 kts 76°
2026-04-19 11:49 36.83365 3.86298 28766 ft 695 kts 77°
2026-04-19 11:49 36.84726 3.92128 28972 ft 700 kts 76°
2026-04-19 11:50 36.86071 3.97906 29147 ft 703 kts 76°
2026-04-19 11:50 36.87438 4.03791 29401 ft 705 kts 77°
2026-04-19 11:50 36.88807 4.09702 29647 ft 706 kts 76°
2026-04-19 11:50 36.90169 4.15590 29916 ft 706 kts 77°
2026-04-19 11:51 36.91532 4.21490 30232 ft 705 kts 77°
2026-04-19 11:51 36.92891 4.27397 30488 ft 705 kts 77°
2026-04-19 11:51 36.94226 4.33213 30760 ft 704 kts 77°
2026-04-19 11:51 36.95575 4.39108 31035 ft 703 kts 77°
2026-04-19 11:52 36.96923 4.45011 31303 ft 703 kts 77°
2026-04-19 11:52 36.98252 4.50849 31583 ft 702 kts 77°
2026-04-19 11:52 36.99588 4.56732 31857 ft 701 kts 77°
2026-04-19 11:53 37.02253 4.68513 31951 ft 703 kts 77°
2026-04-19 11:53 37.04887 4.80215 31952 ft 704 kts 77°
2026-04-19 11:54 37.07548 4.92107 31950 ft 710 kts 77°
2026-04-19 11:54 37.10213 5.04064 31950 ft 711 kts 77°
2026-04-19 11:55 37.12851 5.15957 31854 ft 712 kts 78°
2026-04-19 11:55 37.15495 5.27942 31750 ft 712 kts 78°
2026-04-19 11:56 37.18127 5.39937 31647 ft 712 kts 78°
2026-04-19 11:56 37.20732 5.51879 31552 ft 712 kts 78°
2026-04-19 11:57 37.23327 5.63836 31456 ft 712 kts 78°
2026-04-19 11:57 37.25926 5.75873 31353 ft 713 kts 78°
2026-04-19 11:58 37.28500 5.87860 31255 ft 713 kts 78°
2026-04-19 11:58 37.31060 5.99848 31150 ft 713 kts 78°
2026-04-19 11:59 37.33624 6.11918 31064 ft 713 kts 79°
2026-04-19 11:59 37.36173 6.23984 30999 ft 713 kts 79°
2026-04-19 12:00 37.38694 6.35982 30999 ft 713 kts 79°
2026-04-19 12:00 37.41222 6.48082 30996 ft 713 kts 79°
2026-04-19 12:01 37.43722 6.60112 31002 ft 713 kts 79°
2026-04-19 12:01 37.46222 6.72211 31000 ft 713 kts 79°
2026-04-19 12:02 37.48695 6.84248 31000 ft 713 kts 79°
2026-04-19 12:02 37.51171 6.96363 30996 ft 713 kts 79°
2026-04-19 12:03 37.53617 7.08404 30999 ft 713 kts 79°
2026-04-19 12:03 37.56065 7.20519 30998 ft 713 kts 80°
2026-04-19 12:04 37.58506 7.32673 31001 ft 713 kts 80°
2026-04-19 12:04 37.60914 7.44733 31002 ft 713 kts 80°
2026-04-19 12:05 37.63317 7.56832 31001 ft 712 kts 80°
2026-04-19 12:05 37.65719 7.69001 31000 ft 712 kts 80°
2026-04-19 12:06 37.68091 7.81086 31000 ft 712 kts 81°
2026-04-19 12:06 37.70464 7.93250 30999 ft 712 kts 81°
2026-04-19 12:07 37.72827 8.05432 31000 ft 712 kts 81°
2026-04-19 12:07 37.75159 8.17528 30999 ft 712 kts 81°
2026-04-19 12:08 37.77495 8.29713 30999 ft 712 kts 81°
2026-04-19 12:08 37.79819 8.41914 31002 ft 712 kts 81°
2026-04-19 12:09 37.82114 8.54032 31002 ft 712 kts 81°
2026-04-19 12:09 37.84412 8.66244 30999 ft 712 kts 81°
2026-04-19 12:10 37.86696 8.78451 31002 ft 712 kts 82°
2026-04-19 12:10 37.88954 8.90597 31000 ft 712 kts 82°
2026-04-19 12:11 37.91216 9.02834 31002 ft 712 kts 82°
2026-04-19 12:11 37.93447 9.14987 31002 ft 711 kts 82°
2026-04-19 12:12 37.95679 9.27217 31002 ft 711 kts 82°
2026-04-19 12:12 37.97889 9.39405 30998 ft 711 kts 82°
2026-04-19 12:13 38.00095 9.51645 30999 ft 711 kts 82°
2026-04-19 12:13 38.02290 9.63899 31002 ft 711 kts 82°
2026-04-19 12:14 38.04457 9.76079 30998 ft 711 kts 82°
2026-04-19 12:14 38.06626 9.88353 31002 ft 711 kts 83°
2026-04-19 12:15 38.08772 10.00567 31001 ft 711 kts 83°
2026-04-19 12:15 38.10917 10.12861 30999 ft 711 kts 83°
2026-04-19 12:16 38.13035 10.25075 31001 ft 711 kts 83°
2026-04-19 12:16 38.15153 10.37379 31000 ft 711 kts 83°
2026-04-19 12:17 38.17243 10.49591 30999 ft 711 kts 83°
2026-04-19 12:17 38.19334 10.61896 31000 ft 710 kts 83°
2026-04-19 12:18 38.21411 10.74200 31002 ft 710 kts 83°
2026-04-19 12:18 38.23462 10.86434 30997 ft 710 kts 84°
2026-04-19 12:19 38.25515 10.98761 31000 ft 710 kts 84°
2026-04-19 12:19 38.27551 11.11074 30998 ft 710 kts 84°
2026-04-19 12:20 38.29565 11.23335 30996 ft 710 kts 84°
2026-04-19 12:20 38.31576 11.35658 31002 ft 710 kts 84°
2026-04-19 12:21 38.33572 11.47983 30999 ft 710 kts 84°
2026-04-19 12:21 38.35543 11.60237 31000 ft 710 kts 84°
2026-04-19 12:22 38.37513 11.72569 30998 ft 710 kts 84°
2026-04-19 12:22 38.39463 11.84863 31002 ft 709 kts 85°
2026-04-19 12:23 38.41402 11.97177 30998 ft 709 kts 85°
2026-04-19 12:23 38.42698 12.05456 30996 ft 709 kts 85°